Temp
3 3 3 3 3 3 3 3 3 3 3 3 3 3 3 3 2 2 2 2 4 5 7 8 8 7 7 7 9 10 11 10 10 10 11 11 11 12 12 12 14 13 14 16 16 17 16
3 4 3 3 3 3 3 3 3 3 3 3 2 2 2 2 2 2 2 2 3 5 6 7 7 6 7 7 10 10 11 10 10 10 11 11 12 13 13 13 13 15 15 15 15 15 15
3 3 3 2 2 2 2 2 3 3 3 2 2 2 2 2 2 2 1 2 3 4 6 7 6 6 6 9 10 10 10 10 10 10 11 12 11 13 13 13 14 14 13 12 13 15 14
3 3 2 2 2 2 2 2 2 2 2 2 2 2 2 1 1 1 2 2 3 4 5 7 7 6 6 9 10 9 10 10 10 11 11 11 11 12 12 13 13 13 12 10 12 14 14
3 2 2 2 2 2 2 2 2 2 2 2 2 2 2 2 2 2 2 2 3 4 5 6 5 6 7 9 9 10 10 10 11 11 11 10 11 11 12 11 11 12 10 10 12 15 15
2 2 2 2 2 2 1 1 1 1 1 1 1 1 1 1 2 2 2 2 4 4 5 6 5 6 7 8 9 9 10 10 10 11 9 9 9 10 10 11 10 10 10 11 12 15 15
2 1 1 2 2 1 1 1 1 0 1 1 1 1 1 1 1 1 1 3 4 4 5 5 6 8 9 9 9 9 10 10 11 10 10 9 9 9 9 9 11 12 12 11 12 14 13
1 1 1 2 1 1 1 1 0 0 1 1 1 1 1 1 1 1 1 1 3 2 2 6 6 7 9 8 8 9 10 10 10 9 10 9 9 11 12 12 11 11 11 10 11 13 12
1 1 1 1 2 1 1 1 0 0 1 1 1 1 1 1 1 1 1 2 2 2 3 6 6 7 8 9 8 9 9 10 9 9 9 8 11 11 11 11 11 11 10 10 10 10 10
1 1 2 1 1 1 0 0 0 0 0 0 1 1 2 1 1 2 2 2 2 1 4 6 6 7 8 9 8 9 10 10 10 10 10 10 12 11 10 10 11 10 10 10 10 8 8
1 1 1 1 1 0 0 0 0 0 0 0 1 2 2 2 2 1 1 2 2 2 6 5 7 7 9 8 9 9 10 10 10 10 9 8 10 10 10 10 11 10 10 9 9 8 6
1 1 1 1 1 1 0 0 0 0 -0 1 1 1 2 2 2 2 1 2 3 3 6 5 6 7 7 9 9 9 9 10 11 10 9 9 10 11 10 11 10 10 9 9 8 6 3
0 0 1 1 1 0 0 0 0 0 -0 1 1 2 2 2 2 2 2 2 2 4 4 5 6 7 8 8 8 9 8 8 7 6 7 9 9 10 10 9 10 9 7 2 6 6 5
0 0 0 1 1 1 0 -0 0 -0 0 1 1 2 2 2 2 2 2 2 3 6 5 6 8 8 8 8 7 8 8 7 8 8 6 7 5 8 9 8 7 7 7 3 6 5 6
0 -0 0 1 1 0 -0 -0 -0 -0 1 1 2 2 2 2 3 2 3 3 4 6 6 6 7 7 7 8 7 8 7 8 7 8 7 5 7 9 8 9 8 8 6 8 6 6 1
-0 -0 0 0 -0 -0 -0 -0 -0 0 2 2 3 2 2 2 2 2 3 4 3 5 8 8 6 8 6 8 7 7 7 8 9 9 9 9 8 9 9 9 10 8 8 4 2 2 5
-0 -0 -0 -0 -0 -1 -1 -1 -0 1 2 2 2 2 2 2 2 3 3 3 4 8 9 9 8 8 7 7 7 7 7 9 9 8 9 10 9 7 9 7 7 7 8 7 6 4 3
-0 -0 -0 -1 -1 -0 -0 -1 -0 1 3 3 2 2 2 3 2 3 3 2 3 7 9 10 10 8 8 7 7 8 7 9 10 10 8 10 8 6 5 7 8 7 7 6 4 4 4
-0 -0 -1 -1 -1 0 -0 -1 1 2 2 2 1 2 4 3 3 3 3 4 6 9 10 10 10 10 9 8 8 9 9 9 10 10 10 9 7 4 6 7 8 7 7 8 8 6 6
-1 -1 -1 -1 -1 -0 -0 -1 1 2 3 3 2 2 4 4 4 3 4 6 7 10 10 10 9 10 10 9 9 9 8 9 10 9 11 10 7 4 5 6 6 5 7 7 7 6 7
-1 -1 -1 -1 -1 -1 0 -0 2 2 3 3 3 2 3 2 4 5 4 7 9 9 10 10 10 10 10 9 10 10 8 8 8 9 9 7 5 4 6 6 7 5 7 7 6 7 6
-1 -1 -1 -1 -1 -2 -0 1 1 2 3 3 2 2 2 2 6 6 7 7 7 8 8 9 9 10 9 8 9 9 9 7 7 7 8 7 3 4 5 6 6 5 7 7 7 7 8
-1 -1 -1 -2 -1 -1 -0 1 1 2 3 2 2 2 2 4 5 6 6 7 9 8 9 9 9 9 8 8 8 9 9 9 9 6 6 7 4 5 4 6 6 6 7 8 9 9 8
-1 -1 -1 -2 -2 -0 -1 -0 0 1 1 1 1 2 2 4 5 8 9 9 9 8 8 8 9 8 8 8 9 9 9 9 9 7 7 6 5 5 6 6 6 10 10 9 9 9 10
-1 -1 -1 -2 -2 -2 -0 -2 -1 1 1 1 1 2 2 3 4 9 9 8 8 8 8 8 8 8 8 8 7 8 8 8 8 7 7 7 6 6 7 7 8 10 11 9 8 9 10
-1 -1 -1 -1 -2 -2 -2 -2 -2 -1 1 2 1 1 2 2 4 5 7 8 6 6 7 7 8 8 8 7 7 7 8 9 8 7 7 7 6 6 6 7 8 11 11 11 9 8 10
-1 -1 -1 -1 -2 -1 -2 -2 -2 -2 -2 0 0 0 1 2 4 5 6 7 9 7 5 7 7 7 7 6 6 7 6 9 7 7 7 7 6 7 7 7 7 9 10 10 10 10 9
-1 -1 -2 -2 -2 -2 -2 -2 -2 -2 -2 -2 -1 -0 -1 0 4 5 6 5 7 8 5 7 7 6 6 6 6 6 6 6 7 8 7 7 7 7 7 7 6 10 10 11 10 10 10
-1 -1 -1 -1 -2 -2 -2 -2 -2 -2 -2 -3 -2 -2 -1 -1 3 5 6 6 6 7 8 7 7 7 7 6 4 6 7 6 6 6 8 8 8 9 7 7 9 12 11 11 10 9 9
Height
1528 1524 1519 1516 1511 1507 1503 1499 1494 1489 1485 1481 1478 1475 1473 1470 1467 1465 1461 1459 1458 1458 1458 1458 1462 1464 1466 1467 1463 1463 1466 1468 1472 1475 1478 1482 1485 1486 1488 1489 1491 1490 1490 1489 1490 1489 1489
1526 1522 1516 1512 1508 1503 1499 1495 1489 1484 1479 1476 1473 1470 1467 1464 1463 1460 1457 1455 1453 1453 1454 1455 1458 1461 1463 1462 1459 1462 1465 1467 1469 1473 1476 1479 1482 1484 1487 1487 1488 1484 1487 1487 1487 1486 1487
1523 1519 1516 1511 1506 1500 1495 1489 1483 1479 1475 1472 1468 1464 1462 1459 1456 1455 1452 1450 1448 1448 1449 1449 1453 1457 1458 1455 1458 1460 1463 1466 1468 1470 1474 1478 1481 1484 1485 1484 1483 1484 1487 1486 1485 1485 1484
1520 1516 1511 1507 1502 1497 1491 1485 1479 1475 1470 1466 1462 1459 1456 1453 1450 1449 1446 1444 1442 1443 1442 1444 1449 1454 1452 1451 1455 1457 1461 1464 1467 1469 1473 1477 1479 1482 1482 1483 1482 1484 1488 1494 1482 1479 1478
1519 1514 1508 1504 1499 1494 1487 1481 1475 1470 1465 1461 1457 1454 1451 1448 1445 1443 1441 1439 1438 1438 1438 1439 1443 1449 1449 1447 1449 1454 1458 1462 1466 1468 1470 1475 1477 1480 1482 1484 1488 1488 1497 1493 1485 1471 1472
1517 1512 1506 1500 1494 1488 1482 1476 1470 1465 1461 1457 1453 1450 1447 1445 1442 1439 1437 1435 1432 1433 1434 1434 1440 1449 1444 1444 1446 1451 1457 1461 1464 1466 1470 1473 1473 1479 1481 1482 1494 1490 1492 1486 1485 1472 1470
1513 1508 1503 1498 1491 1485 1479 1473 1468 1462 1457 1453 1450 1447 1444 1441 1439 1436 1434 1431 1431 1433 1430 1427 1431 1433 1431 1440 1444 1448 1456 1459 1463 1466 1468 1469 1475 1478 1480 1481 1479 1480 1482 1484 1478 1474 1474
1510 1506 1501 1495 1489 1483 1476 1470 1465 1460 1455 1451 1447 1443 1441 1437 1435 1433 1432 1431 1431 1431 1429 1426 1429 1434 1434 1437 1443 1447 1454 1459 1462 1466 1466 1473 1477 1475 1476 1479 1481 1482 1483 1484 1477 1471 1473
1509 1504 1498 1492 1486 1480 1473 1466 1461 1457 1453 1449 1444 1441 1438 1434 1431 1429 1428 1429 1429 1431 1428 1427 1429 1433 1435 1439 1443 1447 1453 1457 1460 1466 1468 1473 1473 1472 1477 1478 1481 1483 1485 1484 1486 1478 1475
1507 1501 1495 1489 1484 1478 1471 1464 1459 1455 1450 1445 1441 1438 1434 1431 1428 1427 1427 1427 1427 1429 1430 1424 1426 1431 1435 1439 1445 1449 1453 1457 1461 1465 1467 1469 1469 1472 1477 1480 1481 1488 1484 1483 1484 1489 1494
1504 1498 1493 1486 1481 1475 1469 1463 1457 1452 1447 1442 1438 1434 1430 1427 1422 1423 1427 1424 1425 1430 1414 1427 1426 1431 1435 1440 1443 1450 1453 1456 1459 1461 1469 1473 1470 1474 1476 1479 1480 1487 1485 1486 1488 1492 1496
1502 1496 1490 1484 1479 1473 1467 1461 1455 1450 1444 1440 1435 1429 1422 1418 1418 1419 1424 1423 1428 1434 1415 1421 1424 1429 1436 1440 1443 1449 1454 1457 1459 1462 1468 1471 1470 1472 1475 1478 1482 1484 1487 1488 1490 1497 1515
1502 1495 1488 1482 1477 1471 1465 1459 1454 1448 1441 1436 1430 1423 1418 1417 1418 1419 1422 1426 1434 1429 1420 1420 1420 1428 1434 1441 1446 1449 1453 1457 1462 1472 1473 1471 1474 1474 1475 1482 1484 1485 1496 1524 1503 1502 1503
1500 1494 1488 1481 1476 1471 1464 1458 1452 1445 1439 1432 1426 1421 1420 1418 1420 1422 1423 1426 1430 1411 1415 1418 1421 1430 1437 1441 1450 1450 1455 1459 1460 1460 1471 1475 1491 1478 1476 1480 1486 1488 1492 1514 1502 1504 1489
1499 1493 1487 1481 1475 1469 1463 1457 1450 1443 1436 1428 1424 1424 1422 1423 1423 1427 1428 1429 1422 1417 1419 1420 1429 1436 1442 1443 1450 1452 1457 1459 1460 1460 1470 1485 1481 1471 1474 1476 1481 1488 1496 1489 1496 1492 1516
1498 1493 1486 1480 1474 1468 1462 1456 1449 1441 1432 1424 1424 1428 1427 1428 1429 1431 1430 1423 1425 1421 1418 1422 1430 1434 1442 1443 1450 1452 1457 1457 1459 1460 1462 1464 1475 1472 1474 1476 1478 1480 1484 1504 1511 1521 1493
1497 1493 1486 1480 1473 1468 1462 1456 1448 1439 1433 1427 1427 1431 1433 1432 1433 1434 1433 1434 1429 1422 1421 1422 1427 1431 1437 1445 1448 1452 1456 1453 1456 1458 1462 1463 1467 1481 1476 1477 1479 1481 1482 1484 1488 1498 1505
1497 1492 1486 1480 1474 1468 1462 1455 1448 1441 1436 1434 1433 1436 1435 1435 1435 1436 1437 1438 1434 1429 1422 1422 1425 1430 1435 1443 1449 1448 1454 1449 1452 1455 1463 1464 1472 1479 1481 1472 1472 1476 1478 1481 1493 1494 1489
1496 1491 1486 1480 1474 1469 1463 1456 1450 1444 1440 1437 1439 1441 1439 1435 1439 1441 1439 1436 1430 1424 1422 1422 1424 1426 1434 1439 1446 1445 1448 1449 1451 1455 1459 1464 1474 1491 1478 1475 1472 1473 1472 1471 1472 1477 1472
1495 1491 1485 1480 1475 1469 1464 1458 1452 1447 1443 1441 1443 1445 1443 1441 1443 1443 1439 1435 1433 1426 1425 1424 1427 1431 1436 1440 1440 1446 1450 1452 1453 1455 1457 1461 1468 1480 1481 1473 1470 1477 1468 1467 1470 1475 1463
1493 1490 1485 1481 1476 1471 1465 1459 1453 1448 1445 1444 1446 1449 1449 1447 1441 1442 1442 1437 1432 1432 1430 1429 1433 1435 1437 1439 1439 1442 1450 1455 1456 1457 1459 1462 1471 1473 1468 1464 1465 1467 1464 1463 1466 1460 1462
1493 1489 1485 1481 1476 1472 1467 1461 1455 1450 1448 1446 1450 1451 1448 1443 1440 1441 1440 1440 1438 1437 1436 1435 1435 1436 1437 1442 1441 1444 1448 1454 1456 1459 1460 1463 1477 1472 1468 1459 1460 1461 1455 1454 1453 1450 1447
1492 1489 1485 1481 1477 1472 1468 1465 1460 1456 1452 1450 1452 1452 1452 1445 1444 1444 1442 1441 1439 1438 1439 1439 1438 1439 1442 1444 1444 1445 1445 1447 1448 1455 1461 1463 1472 1469 1473 1456 1457 1455 1444 1442 1440 1437 1436
1491 1488 1484 1481 1477 1473 1469 1465 1463 1460 1457 1456 1455 1455 1454 1448 1444 1441 1438 1438 1439 1438 1439 1440 1439 1440 1445 1444 1445 1446 1447 1448 1450 1452 1454 1462 1466 1467 1465 1459 1459 1433 1428 1429 1431 1427 1426
1489 1487 1484 1481 1477 1473 1470 1467 1463 1461 1459 1456 1455 1455 1454 1452 1447 1440 1440 1440 1441 1441 1441 1442 1442 1443 1443 1444 1446 1448 1448 1449 1449 1451 1453 1455 1462 1462 1458 1455 1444 1427 1426 1428 1430 1424 1420
1486 1485 1482 1479 1477 1474 1470 1467 1465 1461 1458 1457 1455 1454 1453 1453 1446 1445 1440 1440 1443 1444 1443 1443 1443 1442 1443 1444 1445 1446 1446 1443 1448 1451 1452 1455 1457 1461 1460 1456 1448 1426 1422 1422 1423 1426 1415
1482 1481 1478 1475 1474 1473 1470 1467 1464 1462 1459 1457 1455 1454 1453 1451 1442 1441 1440 1440 1438 1440 1443 1442 1443 1443 1444 1446 1447 1445 1450 1440 1447 1448 1451 1453 1457 1455 1456 1453 1442 1424 1421 1422 1425 1423 1412
1479 1478 1475 1473 1470 1469 1468 1466 1463 1461 1458 1457 1455 1454 1454 1449 1439 1439 1440 1440 1438 1438 1442 1442 1444 1444 1445 1447 1448 1448 1449 1445 1443 1441 1444 1446 1450 1450 1451 1452 1450 1418 1420 1422 1414 1409 1408
1475 1475 1472 1469 1468 1467 1465 1464 1462 1460 1457 1456 1454 1453 1452 1451 1441 1436 1435 1435 1437 1438 1439 1439 1440 1439 1441 1443 1448 1446 1445 1446 1445 1446 1433 1439 1434 1434 1439 1434 1418 1416 1415 1413 1410 1408 1406
Wind_Speed
25 27 24 25 28 28 29 29 31 31 29 26 24 24 22 24 24 22 23 20 16 14 14 19 16 11 12 12 12 1 3 17 18 17 20 22 15 8 6 7 14 6 7 19 20 19 16
24 24 28 27 29 30 31 29 34 30 31 28 22 24 24 24 24 24 22 23 20 14 12 20 16 14 15 7 9 8 5 13 18 19 19 21 10 16 7 9 5 4 4 5 10 14 15
24 24 27 28 30 29 31 31 33 32 30 29 27 26 25 24 23 25 23 21 18 17 17 16 15 16 13 20 8 10 11 7 5 14 21 21 12 11 7 2 3 5 3 7 8 13 6
25 25 28 29 30 31 32 33 33 32 30 28 26 25 25 23 24 23 22 16 18 23 16 14 18 16 8 18 19 15 15 11 9 8 20 17 13 8 3 2 2 4 3 2 8 12 13
25 27 28 27 27 29 32 31 32 31 29 27 25 23 22 22 22 21 18 18 17 21 21 10 22 15 7 13 23 18 15 16 9 5 16 15 12 5 5 5 2 2 3 6 7 8 5
27 27 29 30 32 33 32 32 30 29 27 26 24 20 20 22 20 19 20 18 18 17 20 18 13 10 9 14 24 25 13 15 15 11 14 8 4 3 3 2 5 5 4 4 5 4 5
26 27 27 32 31 32 32 30 28 27 25 23 21 20 21 19 18 17 18 13 3 5 19 8 11 4 7 13 18 19 23 15 15 12 3 5 3 6 9 8 4 4 4 4 4 5 3
27 29 29 31 29 30 30 27 27 26 26 25 24 23 21 19 20 17 14 9 7 1 8 17 11 6 26 22 10 23 24 11 9 5 3 4 2 5 7 7 6 4 5 5 6 6 6
27 29 29 29 31 29 29 28 27 26 25 24 22 19 22 22 20 12 8 10 14 13 7 14 10 16 20 11 7 23 22 11 7 6 6 7 3 11 4 2 0 2 3 3 4 7 5
26 25 29 30 31 30 29 29 29 27 27 23 19 21 24 23 19 12 12 8 12 10 3 10 6 10 16 12 5 23 22 13 4 7 7 1 3 2 5 2 3 1 4 5 4 4 4
27 26 30 30 31 29 29 29 31 30 26 21 23 27 28 26 20 18 10 6 7 2 4 11 9 20 17 2 21 14 19 4 7 7 5 5 3 5 3 2 3 3 5 5 3 3 5
27 25 31 31 30 30 30 29 29 32 23 21 27 32 31 14 7 6 8 11 12 1 3 5 8 10 7 16 4 17 7 4 6 8 5 4 3 3 4 2 4 5 3 3 2 2 2
28 27 30 32 30 30 28 28 30 31 24 27 33 32 14 8 1 8 14 8 4 4 3 6 9 10 13 5 6 10 7 4 4 5 3 4 1 2 4 5 2 4 5 3 2 1 6
27 29 29 32 29 29 31 31 31 29 29 32 28 16 9 10 10 12 18 1 1 3 5 9 11 13 7 9 4 8 7 5 3 3 4 4 2 8 4 5 6 5 5 4 5 3 4
26 28 29 32 30 30 31 30 32 31 32 25 17 9 14 9 11 12 2 2 1 4 5 9 13 8 6 4 6 5 3 4 4 3 5 4 3 4 6 3 6 4 5 2 1 2 3
26 29 29 30 29 30 30 31 31 33 34 15 7 13 15 11 5 7 2 5 5 3 13 9 4 4 6 7 5 6 7 7 4 7 2 2 4 3 4 3 3 4 4 3 2 2 5
25 27 28 29 29 30 31 32 32 34 23 13 9 6 11 7 6 4 2 4 5 17 6 1 4 6 8 6 5 5 11 4 9 9 6 2 1 2 3 5 7 3 4 2 2 4 3
24 26 28 27 28 30 31 32 33 25 16 11 11 4 6 7 3 2 2 1 7 7 7 3 5 7 11 8 7 4 8 3 18 15 6 3 3 3 9 6 8 5 6 5 3 5 4
22 24 26 24 26 27 30 31 30 23 13 9 6 3 8 11 4 2 3 4 4 6 5 2 4 5 13 5 6 2 4 4 18 9 11 5 2 1 3 3 2 5 7 8 7 1 13
21 23 25 26 27 27 29 31 29 22 8 8 3 3 5 5 6 3 5 6 2 13 6 9 11 14 8 3 2 8 3 4 8 4 12 10 4 6 4 3 4 3 5 8 11 5 9
19 21 23 24 23 24 26 29 28 21 12 6 5 2 3 2 1 3 4 3 8 5 8 10 5 8 5 3 9 8 7 3 5 2 4 3 2 1 5 9 6 7 11 11 12 15 11
16 19 21 22 24 22 22 25 25 23 11 16 4 4 8 7 4 1 3 4 6 4 5 5 6 9 11 5 2 7 8 4 4 3 3 2 2 1 6 9 8 7 11 12 15 17 19
15 17 19 20 22 24 22 21 22 19 15 10 9 6 3 8 2 2 3 4 1 2 6 7 4 5 7 4 8 7 8 6 9 8 5 5 3 1 4 5 6 3 6 8 7 7 10
14 16 18 18 20 22 22 20 18 18 14 9 8 4 3 3 1 2 2 3 2 3 4 3 8 4 1 1 1 4 4 5 6 5 10 5 4 1 3 5 1 3 6 7 9 9 9
12 16 17 18 18 20 21 21 19 15 14 8 9 4 3 3 4 3 0 3 7 7 4 3 4 4 1 1 2 3 2 2 5 5 7 4 3 2 2 2 6 4 3 5 5 5 3
10 17 16 17 17 19 19 19 19 17 12 8 3 6 1 2 3 7 4 8 3 2 1 2 3 1 2 1 1 3 3 3 3 3 4 5 4 2 0 2 3 3 2 3 5 3 5
9 15 18 15 15 16 18 17 17 19 16 12 4 8 4 4 5 7 3 3 3 3 2 2 2 2 1 1 1 2 2 1 3 5 4 4 2 5 4 3 6 8 5 6 1 4 3
8 13 18 16 15 15 16 15 15 16 16 13 5 6 8 6 19 11 9 6 4 3 3 5 3 1 1 2 2 1 1 2 1 3 5 6 6 4 4 4 7 6 2 2 5 4 6
7 11 18 17 15 16 17 16 14 13 15 13 9 8 10 9 11 13 15 12 7 1 3 8 1 3 3 3 0 1 1 2 0 3 3 3 5 4 7 6 7 3 7 8 7 8 7
Wind_Direction
347 342 339 335 331 337 329 328 318 320 316 310 312 315 312 313 317 316 312 308 280 268 254 237 240 218 201 205 231 144 166 195 187 195 194 193 222 224 172 196 237 218 248 254 262 278 300
345 333 338 340 336 331 329 322 315 316 319 315 314 314 313 309 306 310 304 297 274 278 247 230 216 208 199 215 242 229 197 200 207 197 195 185 220 218 208 245 205 223 221 273 276 297 311
337 341 339 335 332 329 329 321 321 323 320 321 314 307 308 306 308 305 307 298 290 270 236 223 202 207 212 210 175 184 163 155 203 201 197 190 211 195 207 261 12 96 35 337 298 277 252
348 340 332 333 339 340 331 334 329 328 324 320 316 313 308 307 307 307 306 292 296 251 262 230 200 198 235 218 177 189 196 168 176 195 198 196 208 183 135 153 59 57 45 327 248 235 239
337 337 337 341 336 331 331 331 330 327 327 324 321 319 315 313 311 311 310 302 297 245 260 240 178 176 232 204 206 197 200 188 171 208 199 199 180 161 126 139 102 151 227 219 298 244 185
340 339 342 334 331 334 336 336 334 331 328 325 325 326 322 318 314 305 309 300 301 254 259 233 161 176 213 200 195 199 179 166 175 151 143 158 105 113 152 136 187 200 228 245 239 290 190
339 342 344 335 340 342 339 341 338 335 335 336 333 328 324 326 319 308 314 316 319 210 236 156 176 236 224 176 169 187 174 169 165 158 151 166 118 179 188 196 243 275 283 281 279 285 267
345 343 340 341 343 342 340 342 339 339 342 335 333 331 332 321 307 306 302 278 271 353 298 187 176 187 146 143 132 162 161 154 162 167 149 79 135 239 189 206 244 298 259 285 297 336 358
344 342 338 341 343 341 341 341 340 339 337 331 325 329 328 326 336 315 300 275 272 285 268 182 199 187 153 138 145 174 168 157 150 159 160 137 162 206 249 298 187 326 296 300 283 336 345
344 343 338 342 343 342 344 345 341 341 336 330 330 328 328 325 303 334 304 303 253 244 261 151 216 166 156 141 112 167 164 140 157 154 156 57 129 89 194 222 143 317 23 64 31 38 257
347 345 339 345 344 344 345 344 340 343 336 330 329 330 323 317 286 281 294 280 188 262 154 144 153 153 173 156 132 188 180 116 147 138 111 212 183 158 114 145 163 200 87 75 48 17 360
348 345 340 346 345 345 348 345 343 340 335 330 329 328 326 330 309 256 216 146 120 33 194 147 143 149 121 143 70 154 156 129 128 135 172 66 33 103 153 112 83 119 70 34 33 77 307
346 347 344 350 347 347 346 345 345 338 337 335 332 332 341 320 85 152 162 151 88 231 239 117 134 135 124 113 115 149 146 121 131 118 144 144 320 77 81 97 89 97 74 357 337 260 235
349 348 346 351 350 347 349 349 345 340 337 333 337 347 24 72 138 153 155 72 206 57 46 125 125 130 107 124 98 152 140 150 302 70 106 131 324 165 188 164 175 161 161 167 226 225 276
353 353 351 352 350 352 350 351 345 344 339 340 345 65 38 53 109 161 204 39 326 36 134 123 108 119 129 115 123 130 140 155 208 192 122 120 281 113 152 154 132 193 202 176 337 267 34
356 353 356 350 352 353 354 352 351 346 354 352 37 69 42 90 87 165 333 17 326 235 110 135 75 160 148 154 114 144 160 193 194 189 134 15 117 159 138 156 197 150 168 70 5 254 262
357 358 355 352 354 357 356 353 357 359 10 22 76 66 42 96 78 46 15 342 295 130 127 17 137 130 133 156 132 141 182 197 186 181 168 224 111 40 118 208 187 173 198 183 152 168 217
358 357 353 354 357 356 356 358 1 9 25 53 50 46 25 1 67 24 20 305 289 228 255 150 118 103 151 168 153 148 179 181 188 170 180 185 117 198 216 226 196 189 196 167 149 261 243
1 359 356 357 358 354 357 1 8 9 19 43 58 29 34 15 47 27 251 237 277 11 28 57 120 129 138 122 134 184 88 39 174 160 174 146 181 207 311 25 172 199 210 213 226 216 246
360 360 358 2 5 3 1 3 9 10 24 62 61 35 352 46 72 340 353 358 32 10 23 43 98 110 124 190 139 176 116 48 127 107 160 148 173 176 188 184 118 238 223 206 201 227 262
357 359 360 5 0 6 2 2 10 18 15 80 42 13 357 299 181 199 206 271 31 32 4 26 89 153 171 95 125 134 85 75 56 111 83 110 233 95 267 258 228 224 238 238 238 250 252
355 355 358 1 2 4 3 5 15 23 38 64 64 6 346 298 140 42 40 341 13 5 24 4 80 71 63 73 70 140 133 160 185 179 128 110 267 3 284 256 234 250 254 250 249 256 258
353 349 353 356 2 6 8 8 13 23 32 50 27 6 338 287 284 130 212 200 184 114 24 47 27 90 64 32 48 71 98 87 150 148 161 159 156 226 270 330 318 289 238 221 220 219 248
347 345 344 352 354 2 5 8 10 17 28 45 36 4 319 287 356 268 102 108 98 30 124 31 50 76 128 57 18 74 102 115 126 163 148 151 146 177 284 328 315 221 203 197 212 249 251
342 339 342 345 348 353 358 4 4 8 12 21 20 45 355 294 318 285 167 105 100 83 87 83 64 92 74 61 100 151 170 141 215 186 173 143 132 212 265 250 272 285 233 200 198 273 244
336 334 338 341 341 344 349 355 360 359 359 354 346 358 295 333 231 314 286 159 160 184 351 118 114 56 62 47 114 160 184 191 152 119 205 148 133 179 22 291 276 259 275 239 120 281 224
327 331 330 331 335 335 339 345 352 349 355 357 308 337 319 262 265 348 12 282 198 138 134 127 160 99 93 84 87 182 239 234 174 175 168 164 178 220 225 259 281 252 241 164 313 251 269
316 328 325 327 331 334 330 335 343 337 345 352 333 320 346 286 271 271 284 311 349 140 154 172 104 269 104 138 175 235 127 273 348 164 174 174 168 197 180 208 263 221 117 230 241 297 308
308 325 318 330 327 326 327 328 330 328 330 338 324 286 298 278 270 266 255 251 227 134 173 168 279 146 182 108 81 62 232 6 122 277 278 205 198 187 185 212 236 278 255 293 300 301 303